| time (UTC) | temp F | wind direction | speed knots | gust knots | rain 1hr in | rain 24hr in | rain mn in | humidity % | barometer mb |
| 20260505035051 | 50 | 54 | 0.0 | 0.9 | 0.00 | 0.00 | 0.00 | 62 | 923.3 |
| 20260505034547 | 53 | 71 | 0.0 | 0.0 | 0.00 | 0.00 | 0.00 | 54 | 923.2 |
| 20260505034044 | 53 | 78 | 0.0 | 0.0 | 0.00 | 0.00 | 0.00 | 55 | 923.2 |
| 20260505033541 | 52 | 78 | 0.0 | 0.0 | 0.00 | 0.00 | 0.00 | 56 | 923.0 |
| 20260505033040 | 52 | 89 | 0.0 | 0.0 | 0.00 | 0.00 | 0.00 | 57 | 923.0 |
| 20260505032537 | 52 | 68 | 0.0 | 0.0 | 0.00 | 0.00 | 0.00 | 57 | 923.2 |
| 20260505032033 | 54 | 62 | 0.9 | 0.9 | 0.00 | 0.00 | 0.00 | 58 | 922.9 |
| 20260505031531 | 54 | 20 | 0.0 | 0.0 | 0.00 | 0.00 | 0.00 | 52 | 923.1 |
| 20260505031027 | 54 | 20 | 0.0 | 0.0 | 0.00 | 0.00 | 0.00 | 52 | 922.9 |
| 20260505030524 | 53 | 20 | 0.0 | 0.0 | 0.00 | 0.00 | 0.00 | 53 | 922.9 |
| 20260505030020 | 54 | 19 | 0.0 | 0.0 | 0.00 | 0.00 | 0.00 | 55 | 922.9 |
| 20260505025516 | 55 | 18 | 0.0 | 0.0 | 0.00 | 0.00 | 0.00 | 50 | 922.9 |
| 20260505025015 | 55 | 18 | 0.0 | 0.0 | 0.00 | 0.00 | 0.00 | 49 | 923.0 |
| 20260505024511 | 55 | 10 | 0.0 | 0.0 | 0.00 | 0.00 | 0.00 | 49 | 922.7 |
| 20260505024009 | 55 | 16 | 0.0 | 0.0 | 0.00 | 0.00 | 0.00 | 49 | 922.7 |
| 20260505023505 | 55 | 342 | 0.0 | 0.0 | 0.00 | 0.00 | 0.00 | 49 | 922.5 |
| 20260505023003 | 55 | 36 | 0.0 | 0.0 | 0.00 | 0.00 | 0.00 | 49 | 922.5 |
| 20260505022500 | 55 | 7 | 0.0 | 0.0 | 0.00 | 0.00 | 0.00 | 50 | 922.7 |
| 20260505021958 | 56 | 8 | 0.0 | 1.7 | 0.00 | 0.00 | 0.00 | 50 | 922.5 |
| 20260505021454 | 56 | 310 | 1.7 | 1.7 | 0.00 | 0.00 | 0.00 | 49 | 922.5 |
| 20260505020949 | 56 | 288 | 0.0 | 4.3 | 0.00 | 0.00 | 0.00 | 49 | 922.8 |
| 20260505020445 | 57 | 355 | 0.0 | 4.3 | 0.00 | 0.00 | 0.00 | 48 | 922.4 |
| 20260505015942 | 58 | 350 | 0.0 | 0.0 | 0.00 | 0.00 | 0.00 | 47 | 922.3 |
| 20260505015439 | 57 | 317 | 0.0 | 4.3 | 0.00 | 0.00 | 0.00 | 47 | 922.5 |
| 20260505014937 | 57 | 359 | 0.0 | 2.6 | 0.00 | 0.00 | 0.00 | 47 | 922.3 |
| 20260505014433 | 58 | 334 | 0.0 | 1.7 | 0.00 | 0.00 | 0.00 | 47 | 922.4 |
| 20260505013930 | 58 | 283 | 2.6 | 5.2 | 0.00 | 0.00 | 0.00 | 47 | 922.7 |
| 20260505013427 | 58 | 256 | 4.3 | 5.2 | 0.00 | 0.00 | 0.00 | 46 | 922.5 |
| 20260505012925 | 58 | 271 | 5.2 | 7.0 | 0.00 | 0.00 | 0.00 | 46 | 922.1 |
| 20260505012423 | 59 | 272 | 7.8 | 9.6 | 0.00 | 0.00 | 0.00 | 45 | 922.5 |
| 20260505011919 | 59 | 194 | 4.3 | 6.1 | 0.00 | 0.00 | 0.00 | 45 | 922.5 |
| 20260505011416 | 59 | 263 | 6.1 | 8.7 | 0.00 | 0.00 | 0.00 | 45 | 922.7 |
| 20260505010912 | 59 | 207 | 4.3 | 11.3 | 0.00 | 0.00 | 0.00 | 45 | 923.0 |
| 20260505010408 | 60 | 224 | 7.8 | 12.2 | 0.00 | 0.00 | 0.00 | 44 | 923.0 |
| 20260505005904 | 60 | 240 | 7.8 | 12.2 | 0.00 | 0.00 | 0.00 | 43 | 923.2 |
| 20260505005401 | 61 | 210 | 6.1 | 17.4 | 0.00 | 0.00 | 0.00 | 42 | 923.2 |
| 20260505004859 | 61 | 275 | 5.2 | 15.6 | 0.00 | 0.00 | 0.00 | 41 | 923.1 |
| 20260505004355 | 62 | 246 | 5.2 | 13.9 | 0.00 | 0.00 | 0.00 | 41 | 923.1 |
| 20260505003852 | 62 | 209 | 7.0 | 13.9 | 0.00 | 0.00 | 0.00 | 39 | 922.9 |
| 20260505003349 | 62 | 260 | 8.7 | 15.6 | 0.00 | 0.00 | 0.00 | 39 | 923.0 |
| 20260505002845 | 62 | 241 | 6.1 | 18.2 | 0.00 | 0.00 | 0.00 | 40 | 923.0 |
| 20260505002342 | 63 | 247 | 12.2 | 17.4 | 0.00 | 0.00 | 0.00 | 38 | 922.8 |
| 20260505001841 | 64 | 261 | 6.1 | 17.4 | 0.00 | 0.00 | 0.00 | 38 | 922.7 |
| 20260505001337 | 64 | 223 | 5.2 | 15.6 | 0.00 | 0.00 | 0.00 | 36 | 922.7 |
| 20260505000835 | 65 | 256 | 9.6 | 18.2 | 0.00 | 0.00 | 0.00 | 36 | 922.5 |
| 20260505000332 | 67 | 264 | 4.3 | 8.7 | 0.00 | 0.00 | 0.00 | 29 | 922.7 |
| 20260504235829 | 66 | 297 | 4.3 | 11.3 | 0.00 | 0.00 | 0.00 | 30 | 922.5 |
| 20260504235326 | 66 | 263 | 7.0 | 13.0 | 0.00 | 0.00 | 0.00 | 30 | 922.4 |
| 20260504234822 | 66 | 316 | 7.8 | 9.6 | 0.00 | 0.00 | 0.00 | 28 | 922.7 |
| 20260504234320 | 66 | 136 | 5.2 | 9.6 | 0.00 | 0.00 | 0.00 | 28 | 922.7 |
| 20260504233816 | 67 | 217 | 3.5 | 8.7 | 0.00 | 0.00 | 0.00 | 28 | 922.5 |
| 20260504233312 | 67 | 265 | 4.3 | 9.6 | 0.00 | 0.00 | 0.00 | 28 | 922.5 |
| 20260504232809 | 66 | 257 | 6.1 | 8.7 | 0.00 | 0.00 | 0.00 | 27 | 922.4 |
| 20260504232306 | 67 | 129 | 0.0 | 4.3 | 0.00 | 0.00 | 0.00 | 27 | 922.5 |
| 20260504231803 | 68 | 0 | 0.9 | 7.8 | 0.00 | 0.00 | 0.00 | 27 | 922.7 |
| 20260504231259 | 68 | 299 | 0.9 | 5.2 | 0.00 | 0.00 | 0.00 | 27 | 922.9 |
| 20260504230755 | 68 | 294 | 1.7 | 9.6 | 0.00 | 0.00 | 0.00 | 26 | 922.8 |
| 20260504230254 | 68 | 289 | 1.7 | 7.0 | 0.00 | 0.00 | 0.00 | 27 | 922.5 |
| 20260504225752 | 68 | 311 | 0.0 | 0.9 | 0.00 | 0.00 | 0.00 | 25 | 922.7 |
| 20260504225248 | 66 | 317 | 0.0 | 8.7 | 0.00 | 0.00 | 0.00 | 27 | 922.7 |
| 20260504224745 | 66 | 352 | 0.0 | 2.6 | 0.00 | 0.00 | 0.00 | 26 | 922.8 |
| 20260504224243 | 66 | 51 | 0.0 | 7.8 | 0.00 | 0.00 | 0.00 | 27 | 922.9 |
| 20260504223739 | 66 | 226 | 6.1 | 8.7 | 0.00 | 0.00 | 0.00 | 27 | 922.9 |
| 20260504223235 | 66 | 265 | 9.6 | 11.3 | 0.00 | 0.00 | 0.00 | 28 | 922.8 |
| 20260504222732 | 68 | 309 | 6.1 | 9.6 | 0.00 | 0.00 | 0.00 | 27 | 922.8 |
| 20260504222228 | 69 | 203 | 6.1 | 9.6 | 0.00 | 0.00 | 0.00 | 27 | 923.0 |
| 20260504221726 | 69 | 129 | 1.7 | 9.6 | 0.00 | 0.00 | 0.00 | 26 | 922.9 |
| 20260504221223 | 67 | 356 | 5.2 | 7.0 | 0.00 | 0.00 | 0.00 | 26 | 923.0 |
| 20260504220719 | 67 | 358 | 6.1 | 12.2 | 0.00 | 0.00 | 0.00 | 26 | 923.0 |
| 20260504220217 | 68 | 294 | 7.0 | 12.2 | 0.00 | 0.00 | 0.00 | 27 | 923.2 |
| 20260504215714 | 66 | 269 | 2.6 | 12.2 | 0.00 | 0.00 | 0.00 | 26 | 923.2 |
| 20260504215211 | 67 | 315 | 2.6 | 7.0 | 0.00 | 0.00 | 0.00 | 26 | 923.1 |
| 20260504214706 | 67 | 315 | 4.3 | 11.3 | 0.00 | 0.00 | 0.00 | 27 | 923.5 |
| 20260504214203 | 66 | 341 | 0.9 | 9.6 | 0.00 | 0.00 | 0.00 | 29 | 923.1 |
| 20260504213700 | 66 | 318 | 2.6 | 8.7 | 0.00 | 0.00 | 0.00 | 28 | 923.1 |
| 20260504213156 | 65 | 282 | 4.3 | 9.6 | 0.00 | 0.00 | 0.00 | 31 | 923.1 |
| 20260504212653 | 67 | 206 | 10.4 | 13.9 | 0.00 | 0.00 | 0.00 | 30 | 923.5 |
| 20260504212150 | 66 | 265 | 7.0 | 12.2 | 0.00 | 0.00 | 0.00 | 29 | 923.7 |
| 20260504211647 | 66 | 290 | 7.8 | 15.6 | 0.00 | 0.00 | 0.00 | 28 | 923.7 |
| 20260504211143 | 66 | 281 | 11.3 | 26.1 | 0.00 | 0.00 | 0.00 | 29 | 923.7 |
| 20260504210641 | 69 | 295 | 8.7 | 13.9 | 0.00 | 0.00 | 0.00 | 27 | 923.5 |
| 20260504210137 | 68 | 217 | 4.3 | 7.8 | 0.00 | 0.00 | 0.00 | 27 | 923.6 |
| 20260504205635 | 66 | 288 | 0.9 | 6.1 | 0.00 | 0.00 | 0.00 | 27 | 923.7 |
| 20260504205132 | 66 | 323 | 7.8 | 9.6 | 0.00 | 0.00 | 0.00 | 27 | 923.5 |
| 20260504204631 | 66 | 351 | 5.2 | 12.2 | 0.00 | 0.00 | 0.00 | 27 | 923.7 |
| 20260504204129 | 65 | 327 | 1.7 | 9.6 | 0.00 | 0.00 | 0.00 | 28 | 923.7 |
| 20260504203628 | 65 | 326 | 4.3 | 12.2 | 0.00 | 0.00 | 0.00 | 28 | 923.9 |
| 20260504203125 | 66 | 303 | 6.1 | 13.0 | 0.00 | 0.00 | 0.00 | 27 | 923.8 |
| 20260504202625 | 67 | 30 | 6.1 | 7.8 | 0.00 | 0.00 | 0.00 | 25 | 924.0 |
| 20260504202122 | 66 | 61 | 0.9 | 5.2 | 0.00 | 0.00 | 0.00 | 27 | 924.0 |
| 20260504201619 | 64 | 255 | 2.6 | 5.2 | 0.00 | 0.00 | 0.00 | 29 | 924.3 |
| 20260504201117 | 63 | 4 | 1.7 | 8.7 | 0.00 | 0.00 | 0.00 | 29 | 923.9 |
| 20260504200614 | 63 | 358 | 1.7 | 7.0 | 0.00 | 0.00 | 0.00 | 29 | 924.1 |
| 20260504200110 | 64 | 327 | 5.2 | 8.7 | 0.00 | 0.00 | 0.00 | 30 | 924.0 |
| 20260504195606 | 64 | 294 | 6.1 | 12.2 | 0.00 | 0.00 | 0.00 | 30 | 923.9 |
| 20260504195103 | 64 | 345 | 6.1 | 13.0 | 0.00 | 0.00 | 0.00 | 29 | 923.9 |
| 20260504194600 | 65 | 338 | 8.7 | 17.4 | 0.00 | 0.00 | 0.00 | 29 | 923.9 |
| 20260504194055 | 66 | 342 | 5.2 | 6.1 | 0.00 | 0.00 | 0.00 | 26 | 924.1 |
| 20260504193552 | 66 | 268 | 0.9 | 2.6 | 0.00 | 0.00 | 0.00 | 25 | 924.1 |
| 20260504193050 | 65 | 39 | 0.0 | 0.0 | 0.00 | 0.00 | 0.00 | 26 | 924.4 |
| 20260504192548 | 66 | 34 | 4.3 | 7.0 | 0.00 | 0.00 | 0.00 | 27 | 924.4 |
| 20260504192046 | 66 | 32 | 0.0 | 4.3 | 0.00 | 0.00 | 0.00 | 28 | 924.4 |
| 20260504191544 | 65 | 67 | 6.1 | 8.7 | 0.00 | 0.00 | 0.00 | 27 | 924.7 |
| 20260504191040 | 65 | 84 | 2.6 | 9.6 | 0.00 | 0.00 | 0.00 | 28 | 924.6 |
| 20260504190536 | 65 | 73 | 3.5 | 9.6 | 0.00 | 0.00 | 0.00 | 33 | 924.7 |
| 20260504190032 | 64 | 34 | 10.4 | 13.9 | 0.00 | 0.00 | 0.00 | 33 | 924.7 |
| 20260504185530 | 63 | 22 | 6.1 | 11.3 | 0.00 | 0.00 | 0.00 | 35 | 924.7 |
| 20260504185026 | 63 | 42 | 4.3 | 12.2 | 0.00 | 0.00 | 0.00 | 35 | 924.8 |
| 20260504184521 | 61 | 56 | 6.1 | 14.8 | 0.00 | 0.00 | 0.00 | 38 | 924.7 |
| 20260504184017 | 60 | 42 | 11.3 | 13.9 | 0.00 | 0.00 | 0.00 | 35 | 924.7 |
| 20260504183514 | 60 | 34 | 10.4 | 14.8 | 0.00 | 0.00 | 0.00 | 36 | 924.6 |
| 20260504183013 | 60 | 40 | 4.3 | 13.0 | 0.00 | 0.00 | 0.00 | 35 | 924.7 |
| 20260504182509 | 60 | 33 | 7.8 | 13.0 | 0.00 | 0.00 | 0.00 | 33 | 924.7 |
| 20260504182006 | 60 | 6 | 6.1 | 14.8 | 0.00 | 0.00 | 0.00 | 33 | 924.6 |
| 20260504181503 | 63 | 1 | 7.8 | 12.2 | 0.00 | 0.00 | 0.00 | 31 | 924.6 |
| 20260504181002 | 64 | 324 | 3.5 | 7.0 | 0.00 | 0.00 | 0.00 | 29 | 924.5 |
| 20260504180500 | 65 | 349 | 7.8 | 9.6 | 0.00 | 0.00 | 0.00 | 28 | 924.4 |
| 20260504175958 | 66 | 177 | 0.0 | 5.2 | 0.00 | 0.00 | 0.00 | 28 | 924.5 |
| 20260504175455 | 67 | 194 | 2.6 | 9.6 | 0.00 | 0.00 | 0.00 | 28 | 924.6 |
| 20260504174952 | 67 | 83 | 0.9 | 7.0 | 0.00 | 0.00 | 0.00 | 28 | 924.6 |
| 20260504174450 | 68 | 153 | 7.0 | 12.2 | 0.00 | 0.00 | 0.00 | 28 | 924.7 |
| 20260504173947 | 68 | 145 | 0.9 | 7.0 | 0.00 | 0.00 | 0.00 | 29 | 924.9 |
| 20260504173438 | 67 | 219 | 4.3 | 8.7 | 0.00 | 0.00 | 0.00 | 30 | 925.2 |
| 20260504172936 | 67 | 299 | 2.6 | 6.1 | 0.00 | 0.00 | 0.00 | 29 | 925.3 |
| 20260504172432 | 66 | 248 | 5.2 | 6.1 | 0.00 | 0.00 | 0.00 | 30 | 925.1 |
| 20260504171929 | 65 | 223 | 4.3 | 9.6 | 0.00 | 0.00 | 0.00 | 32 | 925.4 |
| 20260504171426 | 65 | 277 | 1.7 | 6.1 | 0.00 | 0.00 | 0.00 | 30 | 925.1 |
| 20260504170923 | 65 | 272 | 4.3 | 6.1 | 0.00 | 0.00 | 0.00 | 31 | 925.1 |
| 20260504170419 | 66 | 233 | 0.0 | 0.9 | 0.00 | 0.00 | 0.00 | 30 | 924.9 |
| 20260504160338 | 60 | 356 | 0.9 | 7.0 | 0.00 | 0.00 | 0.00 | 35 | 925.4 |
| 20260504150803 | 56 | 115 | 1.7 | 4.3 | 0.00 | 0.00 | 0.00 | 38 | 926.0 |
| 20260504150259 | 56 | 89 | 0.9 | 4.3 | 0.00 | 0.00 | 0.00 | 38 | 925.9 |
| 20260504141229 | 47 | 106 | 2.6 | 2.6 | 0.00 | 0.00 | 0.00 | 54 | 926.3 |
| 20260504140725 | 46 | 89 | 1.7 | 1.7 | 0.00 | 0.00 | 0.00 | 55 | 926.2 |
| 20260504140220 | 43 | 94 | 1.7 | 2.6 | 0.00 | 0.00 | 0.00 | 58 | 926.3 |
| 20260504130650 | 38 | 113 | 2.6 | 4.3 | 0.00 | 0.00 | 0.00 | 66 | 925.9 |
| 20260504130146 | 37 | 98 | 2.6 | 2.6 | 0.00 | 0.00 | 0.00 | 67 | 925.7 |
| 20260504120110 | 35 | 61 | 0.0 | 0.9 | 0.00 | 0.00 | 0.00 | 71 | 925.4 |
| 20260504110537 | 36 | 119 | 0.0 | 2.6 | 0.00 | 0.00 | 0.00 | 69 | 925.4 |
| 20260504100459 | 36 | 105 | 2.6 | 4.3 | 0.00 | 0.00 | 0.00 | 67 | 925.4 |
| 20260504081852 | 41 | 148 | 2.6 | 4.3 | 0.00 | 0.00 | 0.00 | 57 | 926.1 |
| 20260504081349 | 41 | 166 | 4.3 | 6.1 | 0.00 | 0.00 | 0.00 | 58 | 926.2 |
| 20260504080844 | 42 | 123 | 3.5 | 6.1 | 0.00 | 0.00 | 0.00 | 58 | 926.3 |
| 20260504080342 | 42 | 131 | 3.5 | 4.3 | 0.00 | 0.00 | 0.00 | 59 | 926.3 |
| 20260504070309 | 43 | 114 | 2.6 | 4.3 | 0.00 | 0.00 | 0.00 | 57 | 926.5 |
| 20260504060230 | 43 | 146 | 4.3 | 6.1 | 0.00 | 0.00 | 0.00 | 57 | 926.8 |
| 20260504050657 | 44 | 124 | 2.6 | 4.3 | 0.00 | 0.00 | 0.00 | 53 | 926.8 |
| 20260504050154 | 45 | 127 | 3.5 | 4.3 | 0.00 | 0.00 | 0.00 | 51 | 927.0 |
| 20260504045652 | 45 | 124 | 4.3 | 5.2 | 0.00 | 0.00 | 0.00 | 51 | 926.7 |
| 20260504045151 | 45 | 124 | 3.5 | 6.1 | 0.00 | 0.00 | 0.00 | 50 | 926.9 |
| 20260504044649 | 45 | 132 | 4.3 | 7.0 | 0.00 | 0.00 | 0.00 | 49 | 926.9 |
| 20260504044146 | 46 | 133 | 4.3 | 6.1 | 0.00 | 0.00 | 0.00 | 49 | 927.0 |
| 20260504043643 | 46 | 138 | 5.2 | 6.1 | 0.00 | 0.00 | 0.00 | 47 | 927.0 |
| 20260504043140 | 46 | 128 | 5.2 | 7.0 | 0.00 | 0.00 | 0.00 | 47 | 927.1 |
| 20260504042638 | 47 | 138 | 2.6 | 2.6 | 0.00 | 0.00 | 0.00 | 46 | 927.2 |
| 20260504042134 | 47 | 125 | 1.7 | 2.6 | 0.00 | 0.00 | 0.00 | 46 | 927.1 |
| 20260504041630 | 48 | 125 | 1.7 | 4.3 | 0.00 | 0.00 | 0.00 | 44 | 926.8 |
| 20260504041126 | 48 | 132 | 0.0 | 0.0 | 0.00 | 0.00 | 0.00 | 44 | 926.9 |
| 20260504040624 | 48 | 118 | 0.0 | 0.0 | 0.00 | 0.00 | 0.00 | 43 | 926.7 |
| 20260504040120 | 49 | 137 | 0.0 | 0.0 | 0.00 | 0.00 | 0.00 | 43 | 926.8 |
| 20260504035617 | 49 | 100 | 0.0 | 0.0 | 0.00 | 0.00 | 0.00 | 43 | 926.8 |
| 20260504035114 | 49 | 108 | 0.0 | 0.0 | 0.00 | 0.00 | 0.00 | 44 | 926.9 |